Regional Weather Roundup
Issued by NWS Sterling, VA

Home | Current Version | Previous Version | Graphics & Text | Print | Product List | Glossary On
Versions: 1 2 3 4 5 6 7 8 9 10 11 12 13 14 15 16 17 18 19 20 21 22 23 24 25 26 27
000
ASUS41 KLWX 280310
RWRLWX

REGIONAL WEATHER ROUNDUP
NATIONAL WEATHER SERVICE BALTIMORE MD/WASHINGTON DC
1100 PM EDT SAT AUG 27 2016

Note: "FAIR" indicates few or no clouds below 12,000 feet
with no significant weather and/or obstructions to visibility.
 TC=TEMPERATURE CELSIUS

 * =Non NWS site. Station does not report precipitation (e.g. rain,
    snow, etc.), thunder, or fog.

DCZ001-MDZ009-015-VAZ040>042-051-053>054-280400-
WASHINGTON METRO

CITY           SKY/WX    TMP DP  RH WIND       PRES   REMARKS
WASHINGTON NAT CLEAR     81  68  64 E3        30.20R
DULLES         CLEAR     76  64  66 SE5       30.20S
ANDREWS AFB    CLEAR     73  67  81 E5        30.20R
FT BELVOIR     CLEAR     70  68  91 CALM      30.20R
QUANTICO       CLEAR     77  71  82 NW6       30.20R
COLLEGE PARK*  CLEAR     70  66  88 CALM      30.20R
LEESBURG*      CLEAR     77  70  78 CALM      30.22S
MANASSAS*      CLEAR     73  70  88 CALM      30.20R
GAITHERSBURG*  CLEAR     72  63  73 CALM      30.25R

$$

MDZ006>007-011-014-280400-
BALTIMORE METRO

CITY           SKY/WX    TMP DP  RH WIND       PRES   REMARKS
BWI AIRPORT    PTCLDY    74  67  78 E3        30.20R
MD SCIENCE CTR   N/A     82  67  60 MISG      30.21R
MARTIN STATE   CLEAR     77  72  83 E6        30.22R
ANNAPOLIS      CLEAR     81  71  71 SE10      30.20R
FORT MEADE*    CLEAR    N/A N/A N/A CALM      30.23R

$$

MDZ012-015-019>023-280400-
MARYLAND EASTERN SHORE

CITY           SKY/WX    TMP DP  RH WIND       PRES   REMARKS
OCEAN CITY     CLEAR     77  73  87 NE7       30.19R
SALISBURY      CLEAR     73  71  93 NE5       30.19S
BAY BRIDGE AP* CLEAR     77  70  78 SE7       30.21R
CAMBRIDGE*     CLEAR     72  68  88 CALM      30.20R
EASTON*        CLEAR     74  73  95 SE3       30.24S

$$

MDZ017>025-280400-
SOUTHERN MARYLAND

CITY           SKY/WX    TMP DP  RH WIND       PRES   REMARKS
PATUXENT RIVER CLEAR     77  69  76 E10       30.19R
ST INIGOES     CLEAR     77  67  71 NE7       30.18R
LEONARDTOWN*   CLEAR     73  68  83 E3        30.21R

$$

MDZ003>005-280400-
NORTH CENTRAL MARYLAND

CITY           SKY/WX    TMP DP  RH WIND       PRES   REMARKS
FREDERICK*     CLEAR     72  72 100 CALM      30.23S
HAGERSTOWN APT CLEAR     78  66  66 E5        30.21R

$$

MDZ501>502-280400-
WESTERN MARYLAND

CITY           SKY/WX    TMP DP  RH WIND       PRES   REMARKS
OAKLAND*       CLEAR     70  64  83 SE7       30.30F
CUMBERLAND*    CLEAR     77  70  78 CALM      30.24F

$$

VAZ025>031-280400-
SHENANDOAH VALLEY

CITY           SKY/WX    TMP DP  RH WIND       PRES   REMARKS
WINCHESTER*    CLEAR     72  66  83 CALM      30.22R
FRONT ROYAL*   FAIR      72  68  88 CALM      30.21R
LURAY*         FAIR      72  72 100 CALM      30.23R
NEW MARKET*    FAIR     N/A N/A N/A CALM      30.22R
STAUNTON*      CLEAR     72  68  89 CALM      30.25F
WAYNESBORO*    FAIR      75  66  73 SE6       30.25S

$$

WVZ021-048>050-054>055-280400-
EASTERN WEST VIRGINIA PANHANDLE

CITY           SKY/WX    TMP DP  RH WIND       PRES   REMARKS
MARTINSBURG    CLEAR     75  67  76 CALM      30.20R
PETERSBURG*    CLEAR     73  71  95 CALM      30.21S

$$

VAZ036>039-050-280400-
CENTRAL FOOTHILLS

CITY           SKY/WX    TMP DP  RH WIND       PRES   REMARKS
CHARLOTTESVILL CLEAR     75  70  84 NW3       30.22R
CULPEPER*      CLEAR     71  70  98 CALM      30.21S
ORANGE*          N/A     70  70 100 CALM      30.23R
GORDONSVILLE*  NOT AVBL
WARRENTON*     FAIR      68  62  82 CALM      30.20S

$$

VAZ055>057-280400-
NORTH AND CENTRAL PIEDMONT

CITY           SKY/WX    TMP DP  RH WIND       PRES   REMARKS
FREDERICKSBRG* CLEAR     73  68  87 CALM      30.19R
STAFFORD*      CLEAR     69  67  95 CALM      30.24R

$$

NCZ024-NYZ072-PAZ021-071-VAZ022-071-280400-
OTHER REGIONAL OBSERVATIONS

CITY           SKY/WX    TMP DP  RH WIND       PRES   REMARKS
NEW YORK CITY  CLEAR     77  55  46 VRB3      30.26R
PHILADELPHIA   PTCLDY    75  64  68 E5        30.23R
PITTSBURGH     PTCLDY    78  68  71 CALM      30.16S
ROANOKE        CLOUDY    83  69  62 CALM      30.24R
RICHMOND       CLEAR     74  65  73 NE6       30.18R
RALEIGH        MOCLDY    80  70  71 E6        30.15R

$$

ANZ530>537-280400-
MARINE OBSERVATIONS

STATION/POSITION TIME  TEMP    WIND        PRES
                       AIR SEA DIR/SP/G
                 (UTC) (F)     (DEG/KT/KT) (MB)
THOMAS PT LIGHT  0300   78 83  110/ 12/ 13 1024.0R
BALT KEY BRIDGE  0242   82     110/ 11/ 12 1022.6R
COVE POINT       0242   78     120/ 11/ 13 1022.9R
LEWISETTA        0242   81 85   90/ 12/ 15 1021.6R
SOLOMONS ISLAND  0242   81 85   80/ 12/ 13   N/A
PINEY POINT      0248          100/  8/  9   N/A

$$





USA.gov is the U.S. government's official web portal to all federal, state and local government web resources and services.